{"data":{"norad_id":56023,"epoch":"2026-09-20T19:42:14.380128Z","epoch_age_seconds":78419,"freshness":"FRESH","line1":"1 56023U 23042AP  26263.82099977  .00000300  00000+0  20438-4 0  9990","line2":"2 56023  43.0021  23.6230 0002065 275.5267  84.5349 15.27577687192876","mean_motion":15.27577687,"eccentricity":0.0002065,"inclination_deg":43.0021,"raan_deg":23.623,"arg_perigee_deg":275.5267,"mean_anomaly_deg":84.5349,"bstar":2.0438e-5,"rev_number":19287,"period_min":94.266891448775,"perigee_km":481.63918564345,"apogee_km":484.47285836153,"semimajor_km":6861.1930220025,"source":"CELESTRAK","updated_at":"2026-09-21T09:00:33.357226Z"}}